Regional Weather Roundup
Issued by NWS Grand Forks, ND

Home | Current Version | Previous Version | Graphics & Text | Print | Product List | Glossary On
Versions: 1 2 3 4 5 6 7 8 9 10 11 12 13 14 15 16 17 18 19 20 21 22 23 24 25 26 27 28 29 30 31 32 33 34 35 36 37 38 39 40 41 42 43 44 45 46 47 48 49 50
000
ASUS43 KFGF 302310
RWRFGF
PRAIRIE TO PINES  WEATHER ROUNDUP
NATIONAL WEATHER SERVICE EASTERN NORTH DAKOTA/GRAND FORKS ND
600 PM CDT SAT AUG 30 2014

 **SATELLITE DATA USED TO AUGMENT SKY COVER AT AUTOMATED STATIONS**
 *****  WEATHER ACROSS EASTERN NORTH DAKOTA  *****

CITY           SKY/WX    TMP DP  RH WIND       PRES   REMARKS
GRAND FORKS    MOSUNNY   73  51  46 SE7       29.81F
GRAND FRKS AFB SUNNY     71  52  50 SE6       29.82F
GRAND FRKS NWS   N/A     32 N/A N/A SE9         N/A  WCI  24
DEVILS LAKE    SUNNY     72  52  49 SE10      29.78F
FARGO          CLOUDY    69  58  67 SE6       29.82F
WAHPETON ARPT  CLOUDY    64  57  77 S6        29.85S
$$

 ***** WEATHER ACROSS CENTRAL AND WESTERN NORTH DAKOTA  *****

CITY           SKY/WX    TMP DP  RH WIND       PRES   REMARKS
BISMARCK       SUNNY     75  56  51 SE15      29.75F
MINOT          MOSUNNY   71  50  47 SE16      29.72F
JAMESTOWN      MOSUNNY   71  56  58 SE9       29.80F
MINOT AFB      MOSUNNY   72  54  53 SE14      29.72F
GARRISON         N/A     72  57  59 SE10      29.73F
WILLISTON      LGT RAIN  70  63  78 NW5       29.67F
DICKINSON      PTSUNNY   75  58  55 S16       29.71S
HETTINGER      MOSUNNY   77  58  51 E14       29.72F
$$

 *****  OTHER AIRPORT OBSERVATIONS IN OUR AREA  *****

CITY           SKY/WX    TMP DP  RH WIND       PRES   REMARKS
WALHALLA         N/A     70  46  43 SE9       29.82F
GRAFTON AIRPOR FAIR      72  46  40 S8        29.81F
VALLEY CITY AR FAIR      70  55  60 SE12      29.82F
CANDO          FAIR      68  54  60 SE9       29.80F
CAVALIER APRT  FAIR      72  46  40 S6        29.82S
GWINNER        CLEAR     72  59  64 SE6       29.84F
SHEYENNE NWR     N/A     66  59  77 SE6       29.95
ROLLA          FAIR      66  50  55 S14       29.80F
 ***** THE ABOVE OBSERVATIONS ARE NON NWS ARE NOT QUALITY
       CONTROLLED AND MAY MIS-REPORT RAIN FOR SNOW...
$$

  *****  WEATHER ACROSS NORTHERN MINNESOTA  *****

CITY           SKY/WX    TMP DP  RH WIND       PRES   REMARKS
FLAG ISLAND    SUNNY     66  48  52 CALM      29.86F
WARROAD        SUNNY     66  57  72 NE8       29.87F
ROSEAU         SUNNY     70  55  60 E12       29.85F
HALLOCK        SUNNY     72  48  43 SE8       29.81F
THF RVR FALLS  MOSUNNY   70  54  56 SE10      29.84S
BAUDETTE       SUNNY     69  54  58 N6        29.86F
WASKISH        MOSUNNY   70  57  64 CALM      29.86F
CROOKSTON      SUNNY     73  54  49 SE8       29.83F
$$
  *****  WEATHER ACROSS CENTRAL AND WEST MINNESOTA  *****

CITY           SKY/WX    TMP DP  RH WIND       PRES   REMARKS
FOSSTON        SUNNY     72  57  60 SE9       29.86S
BEMIDJI        CLOUDY    64  57  78 E7        29.87F
PARK RAPIDS    CLOUDY    63  59  87 CALM      29.88S
ELBOW LAKE     CLOUDY    65  60  85 S5        29.85F
WADENA         CLOUDY    64  61  88 CALM      29.87S
DETROIT LAKES  CLOUDY    64  59  82 E5        29.87F
MOORHEAD       CLOUDY    70  63  78 SE3       29.84F
FERGUS FALLS   CLOUDY    66  57  72 S3        29.85S
MORRIS MN      SUNNY     66  61  82 CALM      29.85F
STAPLES        CLOUDY    64  61  88 CALM      29.87S
$$
  *****  WEATHER ELSEWHERE ACROSS MINNESOTA  *****

CITY           SKY/WX    TMP DP  RH WIND       PRES   REMARKS
DULUTH         CLOUDY    63  58  83 E9        29.89R
INTRNTL FALLS  SUNNY     70  51  51 NE5       29.88S
ELY            CLOUDY    63  55  77 CALM      29.90S
CLOQUET        CLOUDY    66  61  82 E5        29.88S
WHEATON        MOSUNNY   64  57  77 E5        29.86F
BRAINERD       PTSUNNY   69  62  78 N7        29.86F
HIBBING        CLOUDY    66  58  75 NE6       29.89S
ALEXANDRIA     CLOUDY    68  62  81 W5        29.87F
SAINT CLOUD    CLOUDY    75  65  70 SE3       29.85S
MINNEAPOLIS    PTSUNNY   73  61  65 E9        29.85S
$$

  *****  WEATHER ACROSS SOUTH DAKOTA  *****

CITY           SKY/WX    TMP DP  RH WIND       PRES   REMARKS
SIOUX FALLS    MOSUNNY   72  61  68 CALM      29.86F
BROOKINGS      NOT AVBL
WATERTOWN      SUNNY     69  57  65 S5        29.84F
HURON          SUNNY     71  58  63 SE8       29.81F
SISSETON         N/A     70  62  76 SE6       29.83S
ABERDEEN       SUNNY     70  58  65 SE10      29.81F
MITCHELL       SUNNY     72  61  68 SE10      29.83F
PIERRE         SUNNY     80  61  52 SE18G26   29.72F
MOBRIDGE       SUNNY     75  59  57 SE15      29.73F
RAPID CITY     MOSUNNY   88  53  30 S16       29.66F
$$

  *****  SOME WEATHER IN NEARBY STATES *****

CITY           SKY/WX    TMP DP  RH WIND       PRES   REMARKS
GLASGOW MT     PTSUNNY   67  56  67 S8        29.71S
GREAT FALLS MT MOSUNNY   72  44  36 S10       29.75F
CHEYENNE WY    TSTM      69  45  41 W30G47    30.02R
SCOTTSBLUFF NE MOSUNNY   86  46  24 SW17      29.78S
OMAHA NE       MOSUNNY   80  64  58 SE7       29.87F
DES MOINES IA  MOSUNNY   82  68  62 NW7       29.87R
DAVENPORT IA   MOSUNNY   79  67  66 W6        29.87S
CHICAGO IL     PTSUNNY   82  64  54 W15       29.84R
EAU CLAIRE WI  CLOUDY    67  62  84 N5        29.86S
LA CROSSE WI   MOSUNNY   78  65  63 N9        29.83S
$$

  *****  SOME NATIONAL WEATHER *****

CITY           SKY/WX    TMP DP  RH WIND       PRES   REMARKS
LA GUARDIA NY  MOCLDY    75  65  70 S13       30.16S
RALEIGH NC     PTCLDY    85  70  60 SE7       30.12F
ATLANTA GA     PTSUNNY   80  74  81 SE5       30.09S
NEW ORLEANS LA CLOUDY    81  74  79 E6        30.02R
OKLAHOMA CITY  MOSUNNY   95  52  23 CALM      29.87F HX  92
ALBUQUERQUE NM PTSUNNY   89  40  17 S9        30.05F
SALT LAKE CITY PTSUNNY   83  38  20 S8        29.85F
LOS ANGELES CA MOSUNNY   76  64  66 W16       29.77F
BOISE ID       CLOUDY    80  39  23 N12       29.85F
SEATTLE WA     LGT RAIN  63  61  93 N5        29.90S FOG
$$

*** WEATHER ACROSS MANITOBA...SASKATCHEWAN AND ONTARIO ***
                ***ONTARIO***

CITY           SKY/WX    TMP DP  RH WIND       PRES   REMARKS
GERALDTON      PTSUNNY   68  52  56 N6        29.87S
THUNDER BAY    CLOUDY    64  57  77 N2        29.88S
SIOUX LOOKOUT  MOSUNNY   66  50  55 E5        29.90F
TORONTO        MOCLDY    84  64  51 SW16      29.89F
BIG TROUT LK   SUNNY     61  41  48 S3        29.91S
PICKLE LAKE    MOSUNNY   63  43  48 CALM      29.91F
DRYDEN         SUNNY     66  48  52 CALM      29.90S
KENORA         MOSUNNY   66  50  55 SE9       29.88F
$$
                *** MANITOBA***

CITY           SKY/WX    TMP DP  RH WIND       PRES   REMARKS
BRANDON        CLOUDY    68  46  45 S10G18    29.76F
DAUPHIN        MOSUNNY   64  54  68 S3        29.74S
ISLAND LAKE    PTSUNNY   61  45  55 E5        29.86F
PILOT MOUND      N/A     68  41  37 SE12        N/A
THE PAS        CLOUDY    61  54  77 SE15G24   29.66F
THOMPSON       PTSUNNY   64  48  55 S6        29.77F
WINNIPEG       PTSUNNY   70  48  46 S12       29.83F
LYNN LAKE      LGT RAIN  59  50  72 MISG      29.69F
CHURCHILL      MOSUNNY   59  39  47 E5        29.81S
GILLAM         PTSUNNY   63  46  55 S5        29.83S
$$
                ***SASKATCHEWAN***

CITY           SKY/WX    TMP DP  RH WIND       PRES   REMARKS
ESTEVAN        LGT RAIN  64  59  82 S5        29.71F FOG
KINDERSLEY     MOSUNNY   70  43  37 W16G22    29.67S
LLOYDMINSTER   PTSUNNY   64  41  42 W14       29.63F
PRINCE ALBERT  PTSUNNY   68  55  64 NW9       29.56F
REGINA         LGT RAIN  66 N/A N/A N10       29.67
YORKTON        CLOUDY    64  54  68 S12       29.68F
N. BATTLEFORD  PTSUNNY   68  48  49 W7G18     29.63F
LA RONGE       NOT AVBL
SASKATOON      PTSUNNY   70  50  49 NW16      29.62R
SWIFT CURRENT  PTSUNNY   70  43  37 NW12      29.68R
$$
NOTE: THESE ARE AUTOMATED STATIONS WITH LIMITED QUALITY CONTROL
      "FAIR" INDICATES FEW OR NO CLOUDS BELOW 12,000 FEET WITH NO
      SIGNIFICANT WEATHER AND/OR OBSTRUCTIONS TO VISIBILITY.
      SKY/WX - SKY CONDITION AND SIGNIFICANT WEATHER.
      TMP - AIR TEMPERATURE.    DP   - DEWPOINT TEMPERATURE.
      RH  - RELATIVE HUMIDITY.  PRES - PRESSURE.
      HX  - HEAT INDEX.         WCI  - WIND CHILL INDEX.
$


USA.gov is the U.S. government's official web portal to all federal, state and local government web resources and services.